SDM1010 MSLP-GMAD

Flight info

Callsign SDM1010
Flight time N/A
Altitude 31000
Route MSLP/07 N0519F310 VITA2E VITAN UA754 TNT DCT BONOS DCT SIA/N0518F300 UG629 RABAG/N0516F310 UG629 OVALU DCT KNSLY BR9L GTK DCT FARMN/M086F310 DCT PRCHA M596 SIFEN/M086F330 DCT 29N050W 30N040W 31N030W/M086F350 31N020W/N0497F350 DCT TERTO/N0493F360 DCT BULOK BULO2A GMAD/27
Aircraft B748/H-SDE3FGHIM1M2RWXY/LB1

Departure

Time 2026-05-04 08:33
Airport El Salvador International Airport Saint Óscar Arnulfo Romero y Galdámez (MSLP)

Arrival

Time N/A
Airport Al Massira Airport (GMAD)
Time Latitude Longitude Altitude Speed Heading
2026-05-04 08:19 13.44391 -89.05695 101 ft 2 kts 342°
2026-05-04 08:19 13.44354 -89.05683 100 ft 8 kts 342°
2026-05-04 08:20 13.44337 -89.05678 99 ft 0 kts 342°
2026-05-04 08:20 13.44338 -89.05678 99 ft 0 kts 342°
2026-05-04 08:21 13.44341 -89.05679 99 ft 1 kts 337°
2026-05-04 08:21 13.44343 -89.05682 100 ft 1 kts 328°
2026-05-04 08:21 13.44345 -89.05685 100 ft 0 kts 318°
2026-05-04 08:21 13.44347 -89.05688 101 ft 1 kts 305°
2026-05-04 08:22 13.44348 -89.05692 102 ft 0 kts 293°
2026-05-04 08:22 13.44348 -89.05695 102 ft 1 kts 284°
2026-05-04 08:24 13.44301 -89.05782 102 ft 9 kts 244°
2026-05-04 08:24 13.44271 -89.05854 102 ft 12 kts 249°
2026-05-04 08:24 13.44222 -89.05905 100 ft 9 kts 193°
2026-05-04 08:24 13.44170 -89.05926 101 ft 7 kts 223°
2026-05-04 08:25 13.44139 -89.05979 99 ft 10 kts 245°
2026-05-04 08:25 13.44111 -89.06053 97 ft 14 kts 249°
2026-05-04 08:25 13.44072 -89.06162 96 ft 19 kts 250°
2026-05-04 08:25 13.44024 -89.06296 97 ft 20 kts 250°
2026-05-04 08:26 13.43977 -89.06430 95 ft 20 kts 250°
2026-05-04 08:27 13.43744 -89.06985 90 ft 0 kts 192°
2026-05-04 08:28 13.43742 -89.06986 89 ft 1 kts 191°
2026-05-04 08:28 13.43729 -89.06986 89 ft 3 kts 182°
2026-05-04 08:28 13.43702 -89.06984 90 ft 6 kts 171°
2026-05-04 08:28 13.43653 -89.06966 89 ft 5 kts 144°
2026-05-04 08:29 13.43645 -89.06948 90 ft 3 kts 110°
2026-05-04 08:29 13.43641 -89.06921 88 ft 5 kts 94°
2026-05-04 08:29 13.43644 -89.06875 86 ft 8 kts 82°
2026-05-04 08:31 13.44810 -89.03583 124 ft 213 kts 70°
2026-05-04 08:33 13.44810 -88.91769 4399 ft 259 kts 76°
2026-05-04 08:33 13.45612 -88.90145 5394 ft 257 kts 47°
2026-05-04 08:35 13.53433 -88.81472 10137 ft 286 kts 89°
2026-05-04 08:35 13.53435 -88.79423 10672 ft 289 kts 89°
2026-05-04 08:35 13.53418 -88.77300 11249 ft 307 kts 89°
2026-05-04 08:35 13.53485 -88.75024 11805 ft 325 kts 83°
2026-05-04 08:37 13.56025 -88.60654 17671 ft 353 kts 78°
2026-05-04 08:37 13.56536 -88.58175 18558 ft 356 kts 77°
2026-05-04 08:37 13.57072 -88.55648 19172 ft 366 kts 77°
2026-05-04 08:38 13.57621 -88.53091 20074 ft 368 kts 77°
2026-05-04 08:38 13.58181 -88.50509 20847 ft 374 kts 77°
2026-05-04 08:38 13.58760 -88.47861 21489 ft 380 kts 76°
2026-05-04 08:40 13.63657 -88.28751 26013 ft 410 kts 52°
2026-05-04 08:40 13.65622 -88.26651 26658 ft 414 kts 35°
2026-05-04 08:40 13.68128 -88.25298 27363 ft 412 kts 17°
2026-05-04 08:41 13.70957 -88.24813 27936 ft 417 kts 359°
2026-05-04 08:41 13.73844 -88.25248 28429 ft 423 kts 346°
2026-05-04 08:41 13.76771 -88.25641 28932 ft 428 kts
2026-05-04 08:41 13.79720 -88.25111 29395 ft 436 kts 19°
2026-05-04 08:42 13.82452 -88.23673 29621 ft 449 kts 36°
2026-05-04 08:42 13.84707 -88.21425 29718 ft 458 kts 53°
2026-05-04 08:42 13.86265 -88.18532 29764 ft 468 kts 70°
2026-05-04 08:42 13.86965 -88.15256 29777 ft 473 kts 86°
2026-05-04 08:43 13.86924 -88.11871 29774 ft 474 kts 93°
2026-05-04 08:43 13.86422 -88.06259 29735 ft 471 kts 95°
2026-05-04 08:44 13.85662 -87.99571 29713 ft 470 kts 96°
2026-05-04 08:46 13.86849 -87.73342 29767 ft 463 kts 69°
2026-05-04 08:46 13.88886 -87.67089 29774 ft 463 kts 71°
2026-05-04 08:47 13.90792 -87.60743 29789 ft 461 kts 71°
2026-05-04 08:47 13.92765 -87.54466 29813 ft 463 kts 70°
2026-05-04 08:48 13.94791 -87.48185 29842 ft 460 kts 70°
2026-05-04 08:48 13.96816 -87.41898 29873 ft 466 kts 70°
2026-05-04 08:49 13.98825 -87.35626 29884 ft 460 kts 70°
2026-05-04 08:50 14.07144 -87.14273 29903 ft 464 kts 59°
2026-05-04 08:51 14.10361 -87.08551 29887 ft 457 kts 59°
2026-05-04 08:51 14.13509 -87.02812 29886 ft 463 kts 60°
2026-05-04 08:52 14.16605 -86.97050 29874 ft 460 kts 60°
2026-05-04 08:52 14.19696 -86.91220 29873 ft 464 kts 60°
2026-05-04 08:54 14.31997 -86.67909 29838 ft 462 kts 61°
2026-05-04 08:55 14.35044 -86.62128 29841 ft 465 kts 61°
2026-05-04 08:55 14.38135 -86.56262 29831 ft 461 kts 61°
2026-05-04 09:01 14.70412 -85.94722 29772 ft 469 kts 61°
2026-05-04 09:01 14.73482 -85.88843 29763 ft 464 kts 61°
2026-05-04 09:02 14.76564 -85.82936 29766 ft 468 kts 61°
2026-05-04 09:02 14.79628 -85.77061 29754 ft 465 kts 61°
2026-05-04 09:03 14.82712 -85.71142 29752 ft 467 kts 61°
2026-05-04 09:03 14.85768 -85.65271 29752 ft 465 kts 61°
2026-05-04 09:04 14.88828 -85.59390 29749 ft 464 kts 61°
2026-05-04 09:04 14.91886 -85.53507 29749 ft 467 kts 61°
2026-05-04 09:05 14.94966 -85.47578 29744 ft 464 kts 61°
2026-05-04 09:05 14.98030 -85.41674 29744 ft 469 kts 61°
2026-05-04 09:06 15.01105 -85.35744 29745 ft 464 kts 61°
2026-05-04 09:08 15.13357 -85.12072 29735 ft 466 kts 61°
2026-05-04 09:08 15.16433 -85.06117 29743 ft 469 kts 61°
2026-05-04 09:09 15.19465 -85.00242 29733 ft 466 kts 61°
2026-05-04 09:09 15.22538 -84.94284 29731 ft 466 kts 61°
2026-05-04 09:10 15.25586 -84.88366 29726 ft 468 kts 61°
2026-05-04 09:10 15.28656 -84.82406 29726 ft 465 kts 61°
2026-05-04 09:11 15.31705 -84.76480 29724 ft 469 kts 61°
2026-05-04 09:11 15.34751 -84.70556 29720 ft 465 kts 61°
2026-05-04 09:12 15.37807 -84.64606 29721 ft 471 kts 61°
2026-05-04 09:14 15.50037 -84.40748 29724 ft 471 kts 62°
2026-05-04 09:14 15.53064 -84.34829 29714 ft 467 kts 62°
2026-05-04 09:15 15.56132 -84.28829 29720 ft 470 kts 62°
2026-05-04 09:15 15.59176 -84.22868 29710 ft 469 kts 62°
2026-05-04 09:17 15.72927 -83.95885 29716 ft 472 kts 62°
2026-05-04 09:18 15.75966 -83.89904 29712 ft 470 kts 62°
2026-05-04 09:18 15.79017 -83.83898 29715 ft 471 kts 62°
2026-05-04 09:19 15.82066 -83.77890 29712 ft 472 kts 62°
2026-05-04 09:19 15.85139 -83.71831 29704 ft 470 kts 62°
2026-05-04 09:20 15.88187 -83.65815 29716 ft 474 kts 62°
2026-05-04 09:20 15.91256 -83.59754 29712 ft 470 kts 62°
2026-05-04 09:21 15.94309 -83.53717 29718 ft 475 kts 62°
2026-05-04 09:21 15.97350 -83.47699 29716 ft 471 kts 62°
2026-05-04 09:22 16.00413 -83.41631 29722 ft 477 kts 62°
2026-05-04 09:22 16.03471 -83.35570 29714 ft 471 kts 62°
2026-05-04 09:23 16.06480 -83.29504 29719 ft 472 kts 63°
2026-05-04 09:23 16.09412 -83.23348 29727 ft 478 kts 63°
2026-05-04 09:25 16.21001 -82.98703 29724 ft 479 kts 63°
2026-05-04 09:26 16.23908 -82.92524 29720 ft 473 kts 63°
2026-05-04 09:26 16.26819 -82.86330 29727 ft 479 kts 63°
2026-05-04 09:27 16.29717 -82.80155 29722 ft 474 kts 63°
2026-05-04 09:27 16.32632 -82.73942 29726 ft 477 kts 63°
2026-05-04 09:28 16.35523 -82.67771 29723 ft 475 kts 63°
2026-05-04 09:28 16.38416 -82.61592 29724 ft 476 kts 63°
2026-05-04 09:29 16.41307 -82.55412 29716 ft 477 kts 63°
2026-05-04 09:29 16.44219 -82.49180 29721 ft 474 kts 63°
2026-05-04 09:30 16.47107 -82.42992 29724 ft 478 kts 63°
2026-05-04 09:30 16.50011 -82.36768 29727 ft 474 kts 63°
2026-05-04 09:31 16.52907 -82.30554 29730 ft 480 kts 63°
2026-05-04 09:31 16.55802 -82.24335 29725 ft 474 kts 63°
2026-05-04 09:32 16.58697 -82.18111 29736 ft 481 kts 63°
2026-05-04 09:34 16.69786 -81.94215 29727 ft 475 kts 63°
2026-05-04 09:34 16.72660 -81.88007 29734 ft 478 kts 63°
2026-05-04 09:35 16.75547 -81.81765 29730 ft 474 kts 63°
2026-05-04 09:35 16.78429 -81.75530 29737 ft 480 kts 63°
2026-05-04 09:37 16.89939 -81.50564 29741 ft 480 kts 63°
2026-05-04 09:38 16.92803 -81.44335 29733 ft 476 kts 64°
2026-05-04 09:38 16.95688 -81.38057 29741 ft 478 kts 63°
2026-05-04 09:39 16.98550 -81.31820 29735 ft 478 kts 64°
2026-05-04 09:39 17.01417 -81.25569 29736 ft 476 kts 64°
2026-05-04 09:40 17.04276 -81.19327 29738 ft 479 kts 64°
2026-05-04 09:40 17.07153 -81.13043 29736 ft 476 kts 64°
2026-05-04 09:42 17.18620 -80.87925 29744 ft 477 kts 64°
2026-05-04 09:43 17.21492 -80.81620 29751 ft 483 kts 64°
2026-05-04 09:43 17.24350 -80.75337 29744 ft 478 kts 64°
2026-05-04 09:44 17.27207 -80.69054 29751 ft 481 kts 64°
2026-05-04 09:46 17.38651 -80.43810 29743 ft 478 kts 64°
2026-05-04 09:46 17.41500 -80.37510 29750 ft 482 kts 64°
2026-05-04 09:47 17.44364 -80.31172 29751 ft 478 kts 64°
2026-05-04 09:49 17.55777 -80.05846 29758 ft 479 kts 64°
2026-05-04 09:51 17.65739 -79.83658 29753 ft 478 kts 64°
2026-05-04 09:51 17.68586 -79.77303 29769 ft 485 kts 64°
2026-05-04 09:52 17.71428 -79.70948 29761 ft 480 kts 64°
2026-05-04 09:52 17.74280 -79.64568 29771 ft 485 kts 64°
2026-05-04 09:53 17.77119 -79.58209 29766 ft 481 kts 64°
2026-05-04 09:53 17.79976 -79.51807 29770 ft 484 kts 64°
2026-05-04 09:54 17.82789 -79.45490 29762 ft 482 kts 64°
2026-05-04 09:54 17.85640 -79.39087 29769 ft 482 kts 64°
2026-05-04 09:55 17.88470 -79.32722 29771 ft 483 kts 64°
2026-05-04 09:55 17.91316 -79.26316 29764 ft 480 kts 64°
2026-05-04 09:56 17.94146 -79.19937 29775 ft 485 kts 64°
2026-05-04 09:56 17.96985 -79.13532 29770 ft 480 kts 64°
2026-05-04 09:57 17.99819 -79.07131 29777 ft 487 kts 64°
2026-05-04 09:57 18.02632 -79.00771 29772 ft 481 kts 64°
2026-05-04 09:58 18.05467 -78.94355 29781 ft 487 kts 64°
2026-05-04 09:58 18.08287 -78.87963 29776 ft 482 kts 64°
2026-05-04 10:00 18.19600 -78.62264 29778 ft 484 kts 64°
2026-05-04 10:04 18.39317 -78.17202 29794 ft 482 kts 64°
2026-05-04 10:04 18.42137 -78.10731 29807 ft 488 kts 64°
2026-05-04 10:05 18.44936 -78.04294 29801 ft 483 kts 64°
2026-05-04 10:05 18.47750 -77.97823 29803 ft 485 kts 64°
2026-05-04 10:06 18.50572 -77.91469 29787 ft 481 kts 58°
2026-05-04 10:06 18.54428 -77.85726 29806 ft 483 kts 50°
2026-05-04 10:08 18.68812 -77.66228 29795 ft 480 kts 51°
2026-05-04 10:08 18.72842 -77.60553 29798 ft 481 kts 51°
2026-05-04 10:09 18.76809 -77.54959 29794 ft 481 kts 51°
2026-05-04 10:09 18.80831 -77.49288 29801 ft 479 kts 51°
2026-05-04 10:10 18.84829 -77.43652 29797 ft 482 kts 51°
2026-05-04 10:10 18.88849 -77.37982 29799 ft 478 kts 51°
2026-05-04 10:11 18.92854 -77.32328 29803 ft 484 kts 51°
2026-05-04 10:11 18.96862 -77.26654 29799 ft 477 kts 51°
2026-05-04 10:12 19.00853 -77.21004 29808 ft 484 kts 51°
2026-05-04 10:12 19.04887 -77.15297 29806 ft 479 kts 51°
2026-05-04 10:13 19.08858 -77.09669 29800 ft 482 kts 51°
2026-05-04 10:13 19.12864 -77.03986 29806 ft 478 kts 51°
2026-05-04 10:14 19.16867 -76.98303 29812 ft 484 kts 51°
2026-05-04 10:16 19.32851 -76.75547 29816 ft 481 kts 52°
2026-05-04 10:16 19.36803 -76.69910 29812 ft 481 kts 52°
2026-05-04 10:17 19.40809 -76.64193 29817 ft 480 kts 52°
2026-05-04 10:19 19.56736 -76.41396 29820 ft 478 kts 52°
2026-05-04 10:19 19.60668 -76.35752 29819 ft 480 kts 52°
2026-05-04 10:20 19.64666 -76.30016 29831 ft 484 kts 52°
2026-05-04 10:20 19.68627 -76.24323 29820 ft 480 kts 52°
2026-05-04 10:21 19.72613 -76.18593 29832 ft 481 kts 52°
2026-05-04 10:21 19.76567 -76.12900 29830 ft 481 kts 52°
2026-05-04 10:22 19.81852 -76.05283 29833 ft 478 kts 52°
2026-05-04 10:23 19.86469 -75.98621 29837 ft 484 kts 52°
2026-05-04 10:25 20.01759 -75.76820 29835 ft 480 kts 49°
2026-05-04 10:25 20.06003 -75.71288 29855 ft 481 kts 49°
2026-05-04 10:26 20.10210 -75.65797 29850 ft 480 kts 49°
2026-05-04 10:26 20.14431 -75.60253 29847 ft 479 kts 49°
2026-05-04 10:27 20.18612 -75.54724 29855 ft 482 kts 50°
2026-05-04 10:27 20.22809 -75.49154 29859 ft 478 kts 50°
2026-05-04 10:28 20.26981 -75.43612 29862 ft 483 kts 50°
2026-05-04 10:28 20.31168 -75.38046 29862 ft 478 kts 50°
2026-05-04 10:29 20.35350 -75.32483 29868 ft 484 kts 50°
2026-05-04 10:29 20.39524 -75.26924 29858 ft 479 kts 50°
2026-05-04 10:30 20.43689 -75.21376 29873 ft 485 kts 50°
2026-05-04 10:30 20.47858 -75.15813 29862 ft 479 kts 50°
2026-05-04 10:31 20.52051 -75.10215 29870 ft 482 kts 50°
2026-05-04 10:32 20.66055 -74.89842 29869 ft 493 kts 71°
2026-05-04 10:33 20.67794 -74.82687 29882 ft 502 kts 77°
2026-05-04 10:33 20.69298 -74.75469 29854 ft 492 kts 76°
2026-05-04 10:34 20.70987 -74.68347 29855 ft 498 kts 75°
2026-05-04 10:34 20.72743 -74.61247 29849 ft 494 kts 75°
2026-05-04 10:35 20.74527 -74.54104 29858 ft 498 kts 75°
2026-05-04 10:35 20.76276 -74.47056 29852 ft 494 kts 75°
2026-05-04 10:36 20.78038 -74.39920 29854 ft 495 kts 75°
2026-05-04 10:36 20.79780 -74.32828 29852 ft 495 kts 75°
2026-05-04 10:37 20.81536 -74.25676 29858 ft 494 kts 75°
2026-05-04 10:37 20.83271 -74.18579 29859 ft 496 kts 75°
2026-05-04 10:39 20.89557 -73.93610 29855 ft 493 kts 74°
2026-05-04 10:40 20.91378 -73.86492 29865 ft 500 kts 74°
2026-05-04 10:40 20.93191 -73.79372 29860 ft 493 kts 74°
2026-05-04 10:41 20.94999 -73.72241 29860 ft 500 kts 74°
2026-05-04 10:41 20.96748 -73.65166 29855 ft 493 kts 76°
2026-05-04 10:42 20.98176 -73.57946 29864 ft 500 kts 79°
2026-05-04 10:42 20.99488 -73.50651 29858 ft 494 kts 79°
2026-05-04 10:43 21.00821 -73.43402 29858 ft 499 kts 78°
2026-05-04 10:45 21.06365 -73.14401 29867 ft 502 kts 78°
2026-05-04 10:45 21.07759 -73.07190 29855 ft 494 kts 78°
2026-05-04 10:46 21.09156 -72.99937 29863 ft 500 kts 78°
2026-05-04 10:46 21.10546 -72.92701 29859 ft 496 kts 78°
2026-05-04 10:47 21.11944 -72.85406 29865 ft 499 kts 78°
2026-05-04 10:47 21.13329 -72.78160 29856 ft 497 kts 78°
2026-05-04 10:49 21.18847 -72.49117 29859 ft 500 kts 78°
2026-05-04 10:50 21.20227 -72.41812 29857 ft 495 kts 78°
2026-05-04 10:52 21.25692 -72.12700 29864 ft 501 kts 78°
2026-05-04 10:52 21.27049 -72.05425 29861 ft 498 kts 78°
2026-05-04 10:54 21.32470 -71.76256 29862 ft 501 kts 78°
2026-05-04 10:56 21.37914 -71.46951 29869 ft 503 kts 79°
2026-05-04 10:57 21.39265 -71.39619 29863 ft 498 kts 79°
2026-05-04 10:57 21.40615 -71.32282 29869 ft 505 kts 79°